Flag for U.S.A. Weather past 2 weeks in Fort Bragg, California, U.S.A.

Now
86 °F

Sunny.


Feels Like: 83 °F
Forecast: 49 / 61 °F
Wind: 8 mph from Northwest

Location: Ukiah Municipal

Current Time: Apr 27, 2015 at 6:44:51 PM

Latest Report: Apr 27, 2015 at 5:56 PM


Visibility: 10 mi

Pressure: 29.90 "Hg

Humidity: 26%

Dew point: 47 °F

Location of Fort BraggLocation

Historic Weather in Fort Bragg — Graph

°F

Fort Bragg temperature yesterday

Maximum temperature yesterday: 72 °F (at 2:56 PM)
Minimum temperature yesterday: 43 °F (at 6:56 AM)
Average temperature yesterday: 58 °F

Past Weeks' High & Low Weather Summary

 TemperatureHumidityPressure
High88 °F (Apr 27, 3:56 PM)97% (Apr 20, 4:56 AM)30.36 "Hg (Apr 20, 4:56 AM)
Low37 °F (Apr 15, 5:56 AM)14% (Apr 16, 2:56 PM)29.73 "Hg (Apr 21, 4:56 PM)
Average59 °F59%29.98 "Hg
* Reported Apr 12 4:56 PM — Apr 27 4:56 PM, Fort Bragg, Weather by CustomWeather, © 2015

Note: Actual official high and low records may vary slightly from our data, if they occured in-between our weather recording intervals... More about our weather records

Advertising

Fort Bragg weather history for previous 24 hours

 ConditionsComfort  
Time TempWeatherWind HumidityBarometerVisibility
4:56 PM
Mon, Apr 27
87 °FSunny.8 mph26%29.90 "Hg10 mi
3:56 PM88 °FSunny.5 mph24%29.91 "Hg10 mi
2:56 PM87 °FSunny.5 mph24%29.93 "Hg10 mi
1:56 PM85 °FSunny.No wind25%29.96 "Hg10 mi
12:56 PM80 °FSunny.6 mph34%29.98 "Hg10 mi
11:56 AM74 °FSunny.No wind48%30.01 "Hg10 mi
10:56 AM69 °FSunny.No wind53%30.03 "Hg10 mi
9:56 AM63 °FSunny.No wind65%30.06 "Hg10 mi
8:56 AM58 °FSunny.3 mph75%30.07 "Hg10 mi
7:56 AM52 °FSunny.No wind83%30.08 "Hg10 mi
6:56 AM48 °FClear.No wind89%30.09 "Hg10 mi
5:56 AM47 °FClear.No wind93%30.09 "Hg10 mi
4:56 AM46 °FClear.No wind93%30.09 "Hg10 mi
3:56 AM50 °FClear.No wind86%30.09 "Hg10 mi
2:56 AM49 °FClear.No wind90%30.09 "Hg10 mi
1:56 AM51 °FClear.No wind83%30.10 "Hg10 mi
12:56 AM51 °FClear.No wind86%30.11 "Hg10 mi
11:56 PM
Sun, Apr 26
54 °FClear.No wind80%30.10 "Hg10 mi
10:56 PM55 °FClear.5 mph74%30.12 "Hg10 mi
9:56 PM57 °FClear.No wind72%30.14 "Hg10 mi
8:56 PM61 °FSunny.3 mph60%30.12 "Hg10 mi
7:56 PM63 °FSunny.6 mph56%30.11 "Hg10 mi
6:56 PM67 °FSunny.7 mph49%30.10 "Hg10 mi
Weather by CustomWeather, © 2015

See weather overviewHow to use our weather pages